Location: ???????
(38.3360°N, 23.6977°E)
Time: 23:12:25
(UTC+00:00)

Cosmos 2082 Rocket - Pass Details

Date: 17 November 2025
Orbit: 834 x 851 km, 71.0° (Epoch: 13 December)

Event Time Altitude Azimuth Distance (km) Brightness Sun altitude
Rises 16:06:23 0° 346° (NNW) 3,387 5.3 -11.0°
Reaches altitude 10° 16:09:05 10° 356° (N) 2,450 4.5 -11.5°
Maximum altitude 16:14:08 33° 60° (ENE) 1,366 2.8 -12.5°
Drops below altitude 10° 16:19:09 10° 124° (ESE) 2,441 4.2 -13.4°
Sets 16:21:49 0° 133° (SE) 3,374 5.0 -13.9°
